ATLAS 5 CENTAUR DEB, 43990

Orbit data source: Space-Track

ATLAS 5 CENTAUR DEB, 43990 is space debris in HEO originally from a launch on Wed, 17 Sep 2014 UTC launched from the Air Force Eastern Test Range (AFETR). Debris objects in space refer to the collection of defunct objects orbiting the Earth. Examples of debris include non-operational satellites, rocket bodies, and fragments generated from explosions, collisions, or faulty payload assembly.

Loading next visibility...
Identifier
43990, 2014-055AV
Orbit
HEO
Country
Flag of USUS
Related business
Flag of USUnited Launch Alliance/Lockheed Martin (US)
Manufacturer
Unknown
Mission
Spacecraft
Bus & Motor
Unknown
Mass
Unknown
Launch date (UTC)
2014-09-17 (12 years ago)
Launch vehicle
Unknown
Launch site
Air Force Eastern Test Range (AFETR)
Object type
Payload
Rocket body
Debris
Shape & HBR
Unknown shape, 1.1 m
Radar Cross Section
Small (<0.1 m²)

Expand to show TLE details & history
Last TLE update: 2 weeks ago

TLE from 2 weeks ago
0 ATLAS 5 CENTAUR DEB
1 43990U 14055AV  26108.98987094 -.00000016  00000-0  00000-0 0  9999
2 43990  20.3109 140.0090 4752405 172.6945 198.0353  1.88647646 52003
Epoch: 2026-04-18T23:45Z
TLE epoch observation values (Epoch: 2026-04-18T23:45:24.849Z)
Latitude
-0°
Longitude
-63.40348°
Altitude
34,115.166 km
Speed
2.298 km/s
True Right ascension
09h 20m 12s
True Declination
0° 00' 00"
Sunlit
Object was in daylight at epoch
Visualization orbit readout
Latitude
Unknown
Longitude
Unknown
Altitude
Unknown
Speed
Unknown
Apparent Right ascension
Unknown
Apparent Declination
Unknown
Sunlit
N/A
Visualization observer readout
Local Sidereal Time
11:07:10
Azimuth
Unknown
Elevation
Unknown
Doppler factor
Unknown
Orbital elements
Apogee altitude
34,440.71 km
Perigee altitude
8,141.582 km
Semi-major axis
27,669.283 km
Eccentricity
0.47524
Inclination
20.3109°
RAAN
140.009°
Arg. of periapsis
172.6945°
True anomaly
187.32728°
Mean anomaly
198.0353°
Eccentric anomaly
192.25536°
Mean motion
0.47157 °/min
Orbital period
763.41 mins
BSTAR
0
Loading maneuver chart data...
Computing Atmospheric mass density...

Documentation

Showing up to 5 results
|